World > North America > United States > South Carolina   City of Mullins, South Carolina

Hourly Mullins, SC Regional Weather

Feedback E-mail the Weather

Latest News

Mullins, SC Weather Maps

°F °C°F °C
Mullins Weather Map
UTC Time: 5/26/2022, 23:26
Your Time:

Mullins, SC Regional Weather

Expires:202205270000;;623246
ASUS42 KCAE 262310
RWRCAE
REGIONAL WEATHER ROUNDUP
NATIONAL WEATHER SERVICE COLUMBIA SC
700 PM EDT THU MAY 26 2022

NOTE: "FAIR" INDICATES FEW OR NO CLOUDS BELOW 12,000 FEET WITH NO
SIGNIFICANT WEATHER AND/OR OBSTRUCTIONS TO VISIBILITY.

NOT ALL STATIONS ARE QUALITY CONTROLLED BY THE NATIONAL 
WEATHER SERVICE. USE DATA WITH CAUTION...ESPECIALLY 
DEWPOINT OBSERVATIONS.


SCZ001>059-115-116-135>137-GAZ040-063>065-077-270000-
...UPSTATE SOUTH CAROLINA...
  
CITY           SKY/WX    TMP DP  RH WIND       PRES   REMARKS
ANDERSON       LGT RAIN  70  67  90 S8        30.00F                  
LIBERTY        RAIN      67  67  99 S5        30.01F                  
SPARTANBURG    TSTM      66  64  94 SW5       30.04F                  
CLEMSON        RAIN      68  68 100 CALM      30.01S FOG              
GREENVILLE     RAIN      69  66  90 SE7       30.02F FOG              
GREENWOOD      CLOUDY    68  67  96 SE3       30.03F                  
GREER          RAIN      68  65  90 S9        30.03F FOG              
ROCK HILL      CLOUDY    78  69  73 SE8       30.01F                  
CHESTER        CLOUDY    77  70  78 S7        30.02F                  
LAURENS        TSTM      68  66  94 SW5       30.03F                  


...CENTRAL SOUTH CAROLINA...
  
CITY           SKY/WX    TMP DP  RH WIND       PRES   REMARKS
COLUMBIA APT   CLOUDY    82  67  60 SE10      30.00S                  
COLUMBIA OWENS CLOUDY    82  70  66 SE8       30.01F                  
MCENTIRE ANGB  PTSUNNY   81  72  74 SE13      30.00F                  
ORANGEBURG     PTSUNNY   82  71  69 S14       30.02F                  
SUMTER SHAW    PTSUNNY   79  71  74 SE12      30.01F                  
NEWBERRY       CLOUDY    73  64  73 W15       30.05R                  
AIKEN          FAIR      80  65  60 S10       30.02F                  
BARNWELL       FAIR      82  64  54 S9        30.01F                  
MANNING        CLOUDY    77  70  78 S8        30.05S                  
CAMDEN         FAIR      79  70  73 VRB8G15   30.03F                  
LANCASTER      CLOUDY    79  70  73 SE9       30.01F                  
WINNSBORO      CLOUDY    79  68  69 S8        30.01F                  


...EASTERN AND COASTAL SOUTH CAROLINA...
  
CITY           SKY/WX    TMP DP  RH WIND       PRES   REMARKS
MYRTLE BEACH   SUNNY     76  73  91 E9        30.09F                  
N MYRTLE BCH   MOSUNNY   75  71  87 E9        30.08F                  
CONWAY         FAIR      77  70  78 SE8       30.08F                  
MARION         FAIR      79  64  61 S10G17    30.06F                  
HARTSVILLE     PTSUNNY   81  68  65 S6G12     30.04S                  
FLORENCE       CLOUDY    83  68  60 SE16G25   30.04F                  
DARLINGTON     PTSUNNY   81  70  69 SE10G23   30.04F                  
CHARLESTON APT PTSUNNY   79  71  76 S16       30.05F                  
MOUNT PLEASANT CLOUDY    77  77 100 SE6       30.06F                  
WALTERBORO     MOSUNNY   81  68  65 S10G21    30.05S                  
BEAUFORT       MOSUNNY   82  72  71 S13G24    30.04S                  
HILTON HEAD    MOSUNNY   81  73  78 S8G14     30.06S                  


...EASTERN GEORGIA...
  
CITY           SKY/WX    TMP DP  RH WIND       PRES   REMARKS
AUGUSTA BUSH F CLOUDY    76  67  73 W10       30.00R                  
AUGUSTA DANIEL CLOUDY    74  68  81 VRB3      30.02R                  
THOMSON        CLOUDY    71  70  97 SE8       30.02S                  
WASHINGTON     FAIR      71  69  94 SE5       29.99F                  
CLAXTON        FAIR      83  67  56 SE6       30.00F                  
SYLVANIA       PTSUNNY   82  66  57 CALM      30.02S                  
STATESBORO     CLOUDY    82  64  55 SE7G17    30.01S                  
SAVANNAH       PTSUNNY   80  68  66 S16       30.03R                  


...SOUTHERN NORTH CAROLINA...
  
CITY           SKY/WX    TMP DP  RH WIND       PRES   REMARKS
CHARLOTTE      MOSUNNY   80  68  66 SE15      30.01F                  
MONROE         CLOUDY    78  69  73 CALM      30.01F                  
WADESBORO      PTSUNNY   80  67  63 SE12G18   30.02F                  
ROCKINGHAM     MOSUNNY   82  67  59 SE13      30.03F                  
RUTHERFORDTON  RAIN      66  66 100 S7        30.05S                  
ASHEVILLE      LGT RAIN  64  63  96 SE3       30.04F                  

$$
  

SKY/WX - Weather  TMP - Temperature  DP - Dew Point  RH - Humidity
WIND - Wind Direction/Speed PRES - Barometric Pressure VSB - Visibility
WCI - Wind Chill Index E13G22 Wind - East Wind 13 mph/Gusts of 22 mph

Trending Headlines

Mullins Radar Loop



Mullins Quick Facts


National Two Day Weather Forecast


E-mail the Mullins Weather Forecast

Voice your opinion or tell us about page issues...